Venice, California, United States (90291)
Lat: 33.99N, Lon: 118.46W
Wx Zone: CAZ041
Local Info
Past Weather Observations for Today

NOTE: This archive is for the closest National Weather Service station to Venice. Information may differ from the station used for current weather conditions.

Click here for Long-term Archive

Time Weather Temperature Dewpoint Humidity Pressure Winds Precip Visibility
22:53
Clear
66°F / 19°C 61°F / 16°C 83% 30.01 in
(1016 mb)
Calm - 10SM
21:53
Clear
66°F / 19°C 63°F / 17°C 88% 30.04 in
(1017 mb)
SSW 4.6 mph
(SSW 7 kph)
- 10SM
20:53
Clear
70°F / 21°C 63°F / 17°C 78% 30.01 in
(1016 mb)
WNW 9.2 mph
(WNW 15 kph)
- 10SM
19:53
Partly Cloudy
68°F / 20°C 63°F / 17°C 83% 30.01 in
(1016 mb)
W 10.4 mph
(W 17 kph)
- 10SM
18:53
Clear
68°F / 20°C 63°F / 17°C 83% 30.01 in
(1016 mb)
W 15 mph
(W 24 kph)
- 10SM
17:53
Partly Cloudy
68°F / 20°C 63°F / 17°C 83% 30.01 in
(1016 mb)
SSW 10.4 mph
(SSW 17 kph)
- 10SM
16:53
Partly Cloudy
70°F / 21°C 61°F / 16°C 73% 30.01 in
(1016 mb)
SSW 13.8 mph
(SSW 22 kph)
- 10SM
15:53
Partly Cloudy
72°F / 22°C 61°F / 16°C 69% 30.01 in
(1016 mb)
SSW 16.1 mph
(SSW 26 kph)
- 10SM
15:28
Partly Cloudy
72°F / 22°C 61°F / 16°C 69% 30.01 in
(1016 mb)
SSW 16.1 mph
(SSW 26 kph)
- 10SM
14:53
Partly Cloudy
72°F / 22°C 59°F / 15°C 65% 30.01 in
(1016 mb)
W 17.3 mph
(W 28 kph)
- 10SM
14:04
Partly Cloudy
73°F / 23°C 61°F / 16°C 65% 30.04 in
(1017 mb)
SSW 15 mph
(SSW 24 kph)
- 10SM
13:53
Partly Cloudy
72°F / 22°C 61°F / 16°C 69% 30.04 in
(1017 mb)
W 17.3 mph
(W 28 kph)
- 10SM
12:53
Partly Cloudy
73°F / 23°C 57°F / 14°C 57% 30.04 in
(1017 mb)
W 12.7 mph
(W 20 kph)
- 10SM
12:30
Mostly Cloudy
73°F / 23°C 55°F / 13°C 53% 30.04 in
(1017 mb)
W 12.7 mph
(W 20 kph)
- 10SM
11:53
Mostly Cloudy
73°F / 23°C 64°F / 18°C 74% 30.06 in
(1018 mb)
SSW 12.7 mph
(SSW 20 kph)
- 10SM
11:08
Mostly Cloudy
73°F / 23°C 64°F / 18°C 74% 30.06 in
(1018 mb)
SSW 9.2 mph
(SSW 15 kph)
- 10SM
10:53
Mostly Cloudy
72°F / 22°C 64°F / 18°C 78% 30.06 in
(1018 mb)
SSW 11.5 mph
(SSW 19 kph)
- 10SM
10:33
Partly Cloudy
72°F / 22°C 63°F / 17°C 73% 30.06 in
(1018 mb)
SSW 10.4 mph
(SSW 17 kph)
- 10SM
10:13
Partly Cloudy
72°F / 22°C 63°F / 17°C 73% 30.06 in
(1018 mb)
SSW 9.2 mph
(SSW 15 kph)
- 10SM
09:53
Partly Cloudy
73°F / 23°C 63°F / 17°C 69% 30.06 in
(1018 mb)
SSW 10.4 mph
(SSW 17 kph)
- 10SM
08:53
Partly Cloudy
70°F / 21°C 64°F / 18°C 83% 30.06 in
(1018 mb)
S 3.5 mph
(S 6 kph)
- 10SM
07:53
Mostly Cloudy
66°F / 19°C 64°F / 18°C 94% 30.04 in
(1017 mb)
SSE 3.5 mph
(SSE 6 kph)
- 10SM
06:53
Mostly Cloudy
64°F / 18°C 61°F / 16°C 88% 30.04 in
(1017 mb)
Calm - 10SM
05:53
Mostly Cloudy
64°F / 18°C 61°F / 16°C 88% 30.01 in
(1016 mb)
Calm - 10SM
04:53
Partly Cloudy
64°F / 18°C 63°F / 17°C 94% 30.01 in
(1016 mb)
NNW 3.5 mph
(NNW 6 kph)
- 10SM
03:53
Partly Cloudy
64°F / 18°C 61°F / 16°C 88% 29.98 in
(1015 mb)
W 4.6 mph
(W 7 kph)
- 9SM
02:53
Partly Cloudy
64°F / 18°C 63°F / 17°C 94% 30.01 in
(1016 mb)
Calm - 10SM
02:21
Mostly Cloudy
Fog And Mist
64°F / 18°C 63°F / 17°C 94% 30.01 in
(1016 mb)
WNW 5.8 mph
(WNW 9 kph)
- 6SM
01:53
Partly Cloudy
63°F / 17°C 61°F / 16°C 94% 30.01 in
(1016 mb)
W 9.2 mph
(W 15 kph)
- 7SM
00:53
Partly Cloudy
Fog And Mist
64°F / 18°C 64°F / 18°C 100% 30.01 in
(1016 mb)
SSW 3.5 mph
(SSW 6 kph)
- 6SM
Time Weather Temperature Dewpoint Humidity Pressure Winds Precip Visibility


Weather for websites

WeatherForYou.com, LLC is not responsible for any damages or problems caused by this service. Current weather conditions are obtained from the closest station including government and personal stations which may have varying degrees of accuracy. Weather forecasts are derived from the NOAA NDFD. Like all things, this site belongs to Jesus Christ... He just trusts me to maintain it. If you have any questions or comments email webmaster@weatherforyou.com

Copyright © 2014, WeatherForYou.com LLC. All rights reserved.